When you browse on this site, cookies collect data to enhance your experience and personalize the content and advertising you see.
Visit our Privacy Policy to learn more. By continuing to use the site, you agree to this use of cookies and data.
  • In Hungary
  • List of Countries
  • For 7 days
  • Water Temperature
  • Satellite Maps
  • Weather Map
  • News
  • Weather Widgets
  • user-avatar
    Login

    Hourly Weather San Fernando de Henares

    Today, 23 January, Wednesday

    Time Temperature Precipitation Wind Pressure Humidity
    00:00 +3°C° 0 mm 4 mps 707 mmHg 79%
    01:00 +2°C° 0 mm 5 mps 707 mmHg 80%
    02:00 +2°C° 0 mm 5 mps 707 mmHg 81%
    03:00 +2°C° 0 mm 5 mps 706 mmHg 82%
    04:00 +2°C° 0 mm 6 mps 706 mmHg 83%
    05:00 +2°C° 0 mm 6 mps 706 mmHg 83%
    06:00 +3°C° 0 mm 7 mps 705 mmHg 84%
    07:00 +3°C° 0 mm 7 mps 705 mmHg 83%
    08:00 +4°C° 0 mm 7 mps 705 mmHg 82%
    09:00 +5°C° 0 mm 7 mps 705 mmHg 81%
    10:00 +8°C° 0 mm 7 mps 705 mmHg 72%
    11:00 +10°C° 0 mm 8 mps 705 mmHg 63%
    12:00 +12°C° 0 mm 8 mps 706 mmHg 55%
    13:00 +12°C° 0 mm 8 mps 705 mmHg 56%
    14:00 +12°C° 0 mm 9 mps 705 mmHg 56%
    15:00 +11°C° 0 mm 9 mps 705 mmHg 57%
    16:00 +11°C° 0.1 mm 7 mps 705 mmHg 61%
    17:00 +10°C° 0.1 mm 6 mps 705 mmHg 64%
    18:00 +10°C° 0.1 mm 4 mps 705 mmHg 68%
    19:00 +8°C° 0 mm 4 mps 705 mmHg 69%
    20:00 +8°C° 0 mm 4 mps 706 mmHg 70%
    21:00 +8°C° 0 mm 5 mps 706 mmHg 72%
    22:00 +7°C° 0 mm 4 mps 706 mmHg 73%
    23:00 +7°C° 0 mm 4 mps 706 mmHg 75%

    Tomorrow, 24 January, Thursday

    Time Temperature Precipitation Wind Pressure Humidity
    00:00 +6°C° 0 mm 4 mps 706 mmHg 76%
    01:00 +6°C° 0 mm 4 mps 706 mmHg 78%
    02:00 +6°C° 0 mm 5 mps 706 mmHg 79%
    03:00 +5°C° 0 mm 5 mps 706 mmHg 81%
    04:00 +5°C° 0 mm 5 mps 706 mmHg 82%
    05:00 +5°C° 0 mm 5 mps 706 mmHg 83%
    06:00 +5°C° 0 mm 4 mps 705 mmHg 84%
    07:00 +5°C° 0 mm 4 mps 706 mmHg 83%
    08:00 +6°C° 0 mm 4 mps 706 mmHg 82%
    09:00 +7°C° 0 mm 4 mps 707 mmHg 80%
    10:00 +8°C° 0 mm 4 mps 707 mmHg 72%
    11:00 +11°C° 0 mm 4 mps 707 mmHg 63%
    12:00 +13°C° 0 mm 4 mps 707 mmHg 54%
    13:00 +13°C° 0 mm 5 mps 707 mmHg 54%
    14:00 +13°C° 0 mm 5 mps 707 mmHg 55%
    15:00 +13°C° 0 mm 5 mps 707 mmHg 55%
    16:00 +12°C° 0 mm 4 mps 707 mmHg 58%
    17:00 +12°C° 0 mm 3 mps 707 mmHg 62%
    18:00 +12°C° 0 mm 2 mps 708 mmHg 65%
    19:00 +10°C° 0 mm 3 mps 708 mmHg 68%
    20:00 +10°C° 0 mm 3 mps 709 mmHg 71%
    21:00 +9°C° 0 mm 3 mps 709 mmHg 75%
    22:00 +9°C° 0 mm 3 mps 709 mmHg 76%
    23:00 +8°C° 0 mm 3 mps 710 mmHg 77%

    Day after tomorrow, 25 January, Friday

    Time Temperature Precipitation Wind Pressure Humidity
    00:00 +8°C° 0 mm 3 mps 710 mmHg 78%
    01:00 +8°C° 0 mm 3 mps 710 mmHg 77%
    02:00 +8°C° 0 mm 3 mps 710 mmHg 76%
    03:00 +8°C° 0 mm 3 mps 711 mmHg 74%
    04:00 +7°C° 0 mm 3 mps 711 mmHg 75%
    05:00 +7°C° 0 mm 3 mps 711 mmHg 75%
    06:00 +7°C° 0 mm 3 mps 711 mmHg 76%
    07:00 +7°C° 0 mm 3 mps 711 mmHg 74%
    08:00 +7°C° 0 mm 4 mps 712 mmHg 71%
    09:00 +7°C° 0 mm 4 mps 712 mmHg 69%
    10:00 +9°C° 0 mm 5 mps 712 mmHg 62%
    11:00 +10°C° 0 mm 5 mps 712 mmHg 55%
    12:00 +11°C° 0 mm 6 mps 712 mmHg 48%
    13:00 +11°C° 0 mm 6 mps 712 mmHg 48%
    14:00 +11°C° 0 mm 6 mps 712 mmHg 48%
    15:00 +11°C° 0 mm 6 mps 712 mmHg 48%
    16:00 +10°C° 0 mm 5 mps 712 mmHg 53%
    17:00 +10°C° 0 mm 3 mps 712 mmHg 57%
    18:00 +9°C° 0 mm 2 mps 712 mmHg 61%
    19:00 +8°C° 0 mm 2 mps 712 mmHg 64%
    20:00 +8°C° 0 mm 2 mps 713 mmHg 67%
    21:00 +7°C° 0 mm 2 mps 713 mmHg 70%
    22:00 +7°C° 0 mm 2 mps 713 mmHg 71%
    23:00 +7°C° 0 mm 2 mps 713 mmHg 73%

    26 January, Saturday

    Time Temperature Precipitation Wind Pressure Humidity
    00:00 +6°C° 0 mm 2 mps 713 mmHg 75%
    01:00 +6°C° 0 mm 2 mps 713 mmHg 76%
    02:00 +6°C° 0 mm 2 mps 713 mmHg 77%
    03:00 +6°C° 0 mm 2 mps 713 mmHg 79%
    04:00 +5°C° 0 mm 2 mps 713 mmHg 80%
    05:00 +5°C° 0 mm 2 mps 713 mmHg 81%
    06:00 +6°C° 0 mm 1 mps 713 mmHg 82%
    07:00 +7°C° 0 mm 1 mps 713 mmHg 79%
    08:00 +7°C° 0 mm 1 mps 714 mmHg 75%
    09:00 +8°C° 0 mm 1 mps 714 mmHg 72%
    10:00 +9°C° 0 mm 2 mps 714 mmHg 65%
    11:00 +10°C° 0 mm 3 mps 714 mmHg 57%
    12:00 +12°C° 0 mm 3 mps 714 mmHg 50%
    13:00 +12°C° 0 mm 3 mps 713 mmHg 48%
    14:00 +12°C° 0 mm 3 mps 713 mmHg 46%
    15:00 +13°C° 0 mm 3 mps 712 mmHg 44%
    16:00 +13°C° 0 mm 2 mps 712 mmHg 49%
    17:00 +10°C° 0 mm 2 mps 712 mmHg 55%
    18:00 +9°C° 0 mm 2 mps 712 mmHg 60%
    19:00 +8°C° 0 mm 2 mps 713 mmHg 64%
    20:00 +7°C° 0 mm 2 mps 713 mmHg 68%
    21:00 +8°C° 0 mm 1 mps 713 mmHg 72%
    22:00 +7°C° 0 mm 1 mps 713 mmHg 74%
    23:00 +7°C° 0 mm 1 mps 713 mmHg 76%

    27 January, Sunday

    Time Temperature Precipitation Wind Pressure Humidity
    00:00 +6°C° 0 mm 1 mps 713 mmHg 78%
    01:00 +6°C° 0 mm 1 mps 713 mmHg 79%
    02:00 +6°C° 0 mm 1 mps 713 mmHg 80%
    03:00 +5°C° 0 mm 1 mps 712 mmHg 81%
    04:00 +5°C° 0 mm 1 mps 712 mmHg 81%
    05:00 +5°C° 0 mm 1 mps 712 mmHg 81%
    06:00 +5°C° 0 mm 1 mps 712 mmHg 81%
    07:00 +6°C° 0 mm 1 mps 712 mmHg 78%
    08:00 +6°C° 0 mm 1 mps 712 mmHg 74%
    09:00 +7°C° 0 mm 1 mps 713 mmHg 70%
    10:00 +7°C° 0 mm 2 mps 713 mmHg 64%
    11:00 +9°C° 0 mm 3 mps 712 mmHg 57%
    12:00 +10°C° 0 mm 3 mps 712 mmHg 51%
    13:00 +10°C° 0 mm 4 mps 712 mmHg 49%
    14:00 +10°C° 0 mm 4 mps 711 mmHg 46%
    15:00 +11°C° 0 mm 4 mps 711 mmHg 44%
    16:00 +10°C° 0 mm 4 mps 711 mmHg 48%
    17:00 +8°C° 0 mm 4 mps 711 mmHg 51%
    18:00 +7°C° 0 mm 3 mps 711 mmHg 55%
    19:00 +7°C° 0 mm 3 mps 711 mmHg 57%
    20:00 +7°C° 0 mm 3 mps 712 mmHg 59%
    21:00 +5°C° 0 mm 4 mps 712 mmHg 61%
    22:00 +4°C° 0 mm 3 mps 712 mmHg 62%
    23:00 +4°C° 0 mm 3 mps 712 mmHg 64%

    28 January, Monday

    Time Temperature Precipitation Wind Pressure Humidity
    00:00 +4°C° 0 mm 2 mps 712 mmHg 65%
    01:00 +4°C° 0 mm 2 mps 711 mmHg 67%
    02:00 +2°C° 0 mm 3 mps 711 mmHg 69%
    03:00 +2°C° 0 mm 3 mps 711 mmHg 72%
    04:00 +2°C° 0 mm 3 mps 711 mmHg 72%
    05:00 +2°C° 0 mm 3 mps 710 mmHg 72%
    06:00 +2°C° 0 mm 3 mps 710 mmHg 72%
    07:00 +3°C° 0 mm 3 mps 710 mmHg 70%
    08:00 +4°C° 0 mm 2 mps 711 mmHg 68%
    09:00 +5°C° 0 mm 2 mps 711 mmHg 66%
    10:00 +7°C° 0 mm 3 mps 711 mmHg 58%
    11:00 +7°C° 0 mm 4 mps 711 mmHg 51%
    12:00 +9°C° 0 mm 6 mps 711 mmHg 43%
    13:00 +9°C° 0 mm 7 mps 711 mmHg 43%
    14:00 +9°C° 0 mm 8 mps 711 mmHg 43%
    15:00 +9°C° 0 mm 8 mps 711 mmHg 43%
    16:00 +7°C° 0 mm 8 mps 711 mmHg 46%
    17:00 +5°C° 0 mm 7 mps 712 mmHg 49%
    18:00 +4°C° 0 mm 6 mps 712 mmHg 53%
    19:00 +3°C° 0 mm 6 mps 713 mmHg 54%
    20:00 +2°C° 0 mm 5 mps 714 mmHg 56%
    21:00 +1°C° 0 mm 4 mps 715 mmHg 57%
    22:00 +1°C° 0 mm 4 mps 715 mmHg 57%
    23:00 0°C° 0 mm 4 mps 715 mmHg 56%
    Show more